Вернуться в каталог

GEESAT 1-09

АктивенСвязьVLEO
NORAD 52793·PAYLOAD·🇨🇳 China

Запущен Jun 2, 2022 с Xichang Satellite Launch Center

Loading…

Ближайшие Пролёты (ближайшие 24 часа)

TLE

СвежийSource: Space-Track

Эпоха: Sep 14, 2026, 22:16 UTC

1 52793U 22058J   26257.92782051  .00003206  00000-0  26759-3 0  9992
2 52793  49.9962 114.5441 0006673 161.6239 198.4949 15.01138824233721

Отслеживайте GEESAT 1-09 в реальном времени с AllMySat

Download on the App Store